Hourly Weather Roundup
Issued by NWS Central Illinois

Home | Current Version | Previous Version | Text Only | Print | Product List | Glossary On
Versions: 1 2 3 4 5 6 7 8 9 10 11 12 13 14 15 16 17 18 19 20 21 22 23 24 25 26 27 28 29 30 31 32 33 34 35 36 37 38 39 40 41 42 43 44 45 46 47 48 49 50
000
NZUS43 KILX 261410
HWRILX

Area Weather Roundup
National Weather Service Lincoln IL
900 AM CDT THU APR 26 2018

NOTE:  "FAIR" indicates few or no clouds below 12,000 feet, with
       no sigificant weather and/or obstructions to visibility.


CITY           SKY/WX    TMP DP  RH WIND       PRES   REMARKS
Bloomington    FAIR      51  32  48 E8        29.99R
Champaign      FAIR      50  31  48 VRB3      29.99R
Danville       FAIR      45  35  67 N5        29.96R
Decatur        FAIR      50  32  50 E5        29.99R
Effingham      FAIR      53  37  54 NE6       29.98F
Flora          FAIR      53  35  51 NE6       29.97F
Galesburg      FAIR      54  38  55 S8        29.98S
Jacksonville   SUNNY     51  37  59 SE6       29.99R
Lacon          FAIR      49  32  52 S6        29.98S
Lawrenceville    N/A     56  33  42 MISG      29.96F
Litchfield     MOSUNNY   52  37  56 E3        29.98S
$$


CITY           SKY/WX    TMP DP  RH WIND       PRES   REMARKS
Lincoln        FAIR      51  34  51 SE6       30.00R
Macomb         SUNNY     50  37  59 S10       30.00S
Mattoon        FAIR      51  32  48 CALM      29.98R
Mt Carmel AP   FAIR      53  33  46 NE6       29.96S
Olney-Noble AP FAIR      53  31  42 NE8       29.96F
Paris AP       FAIR      47  33  59 CALM      29.99S
Peoria         FAIR      51  33  50 SE5       29.99S
Pontiac        FAIR      47  32  55 CALM      30.00S
Rantoul        FAIR      49  36  61 NE7       29.99R
Robinson       FAIR      52  35  53 N7        29.97F
Springfield    FAIR      52  34  50 SE7       30.00R
Taylorville    FAIR      51  33  50 E5        29.99F
$$

...REGIONAL REPORTS...


CITY           SKY/WX    TMP DP  RH WIND       PRES   REMARKS
Chicago O`Hare FAIR      49  29  46 CALM      29.96S
Kankakee       FAIR      48  33  55 CALM      29.99S
La Salle       FAIR      49  32  51 S6        29.99S
Moline         FAIR      51  35  54 SW7       29.96S
Mount Sterling SUNNY     52  36  55 SE7       29.98S
Mount Vernon   PTSUNNY   52  36  54 NE9       29.96S
Pittsfield     SUNNY     53  39  59 SE3       30.00S
Quincy         SUNNY     53  40  61 S3        29.98R
Rockford       CLOUDY    47  32  56 SW3       29.98S
$$


CITY           SKY/WX    TMP DP  RH WIND       PRES   REMARKS
Burlington     MOSUNNY   50  37  61 S7        29.96S
Cedar Rapids   FAIR      50  36  58 S6        29.94S
Des Moines     CLOUDY    51  37  58 CALM      29.96F
Kirksville     SUNNY     55  41  59 NW5       29.99R
Ottumwa        CLOUDY    51  36  56 CALM      29.96S
St Louis       NOT AVBL
$$


CITY           SKY/WX    TMP DP  RH WIND       PRES   REMARKS
Terre Haute    FAIR      48  33  56 W5        29.98R
Evansville     FAIR      55  39  54 NE6       29.94S
Indianapolis   FAIR      47  33  58 CALM      29.96R
Lafayette      FAIR      44  35  70 N3        29.97R
Madison        PTSUNNY   48  32  53 VRB3      29.94S
Milwaukee      PTSUNNY   49  33  54 SW5       29.95F
$$






USA.gov is the U.S. government's official web portal to all federal, state and local government web resources and services.